Find PRSC-EO1

NORAD ID: 62726 Int'l Des: NNA 2025-012 Owner: SUPA Country: PK operational
LEOCIRCULARRETROGRADESSO

現在のビュー

3D地球を読み込み中...

About PRSC-EO1

PRSC-EO1 (NORAD 62726) is a satellite launched Jan 17, 2025 by SUPA of PK. It operates in LEO, CIRCULAR, RETROGRADE, SSO orbit with a mass of 500.00 kg.

次回通過

Passes for default location (London). Set your location on the main map for personalized predictions.

高度履歴

Loading altitude history...

軌道要素

1 62726U 25012B 26194.77262759 .00002725 00000-0 12430-3 0 9999
2 62726 97.4228 267.4674 0009279 173.0866 187.0500 15.21441041 82296
Epoch: Jul 13, 2026 • Age: 10 hours

現在のステータス

高度 506.0 km
遠地点 / 近地点 N/A
速度 7.61 km/s
衛星直下点 -25.97°S, 78.46°E
打ち上げ日 Jan 17, 2025
運用期間 1.4 years
タイプ other

技術仕様

分類 Payload
質量 500.00 kg
乾燥質量 500.00 kg
総質量 500.00 kg
長さ 2.00 m
直径 1.50 m
スパン 8.00 m
形状 Box + 2 Pan
製造者 SUPA
バスタイプ PRSC-EO
フェーズステータス In Orbit
所有者/国 SUPA/PK

Most Searched